Duluth, MN

7:05 AM CDT on September 26, 2017 (GMT -0500)
Duluth International

Weather History for KDLH - January, 2013

Change the Weather History Date:

Thursday, January 10, 2013

  Actual Average Record
Temperature  
Mean Temperature 32 °F 10 °F  
Max Temperature 42 °F 19 °F 47 °F (2012)
Min Temperature 22 °F 1 °F -36 °F (1912)
Degree Days  
Heating Degree Days 33 55  
Month to date heating degree days 444 547  
Since 1 July heating degree days 3916 4316  
Cooling Degree Days 0 0  
Month to date cooling degree days 0 0  
Year to date cooling degree days 0 0  
Moisture  
Dew Point 21 °F    
Average Humidity 63    
Maximum Humidity 89    
Minimum Humidity 36    
Precipitation  
Precipitation 0.28 in 0.03 in 1.14 in (1975)
Month to date precipitation 0.28 0.35  
Year to date precipitation 0.28 0.35  
Snow  
Snow 0.00 in 0.70 in 4.30 in (1975)
Month to date snowfall 0.3 6.7  
Since 1 July snowfall 24.8 40.5  
Snow Depth 5.00 in    
Sea Level Pressure  
Sea Level Pressure 30.04 in    
Wind  
Wind Speed 12 mph (SSE)    
Max Wind Speed 23 mph    
Max Gust Speed 32 mph    
Visibility 8 miles    
Events Rain    
T = Trace of Precipitation, MM = Missing Value Source: NWS Daily Summary

Daily Weather History Graph

Daily Weather History Graph

Search for Another Location

Airport or City:

Trip Planner

Search our weather history database for the weather conditions in past years. The results will help you decide how hot, cold, wet, or windy it might be!

Date:

Astronomy

Jan. 10, 2013 Rise Set
Actual Time 7:52 AM CST 4:41 PM CST
Civil Twilight 7:17 AM CST 5:15 PM CST
Nautical Twilight 6:39 AM CST 5:53 PM CST
Astronomical Twilight 6:02 AM CST 6:30 PM CST
Moon 6:31 AM CST (1/10) 3:50 PM CST (1/10)
Length of Visible Light 9h 58m
Length of Day
8h 49m
Waning Crescent, 2% of the Moon is Illuminated
Jan 10
Waning Crescent
Jan 11
New
Jan 18
First Quarter
Jan 26
Full
Feb 3
Last Quarter

Hourly Weather History & Observations

Time (CST) Temp. Windchill Dew Point Humidity Pressure Visibility Wind Dir Wind Speed Gust Speed Precip Events Conditions
12:55 AM 23.0 °F 14.7 °F 16.0 °F 74% 30.33 in 10.0 mi South 6.9 mph - N/A   Clear
1:55 AM 24.1 °F 15.2 °F 16.0 °F 71% 30.33 in 10.0 mi SSE 8.1 mph - N/A   Clear
2:55 AM 25.0 °F 14.8 °F 16.0 °F 69% 30.31 in 10.0 mi SE 10.4 mph - N/A   Clear
3:55 AM 26.1 °F 16.2 °F 16.0 °F 66% 30.30 in 10.0 mi SSE 10.4 mph - N/A   Clear
4:55 AM 26.1 °F 15.6 °F 16.0 °F 66% 30.27 in 10.0 mi South 11.5 mph - N/A   Clear
5:55 AM 27.0 °F 17.3 °F 16.0 °F 63% 30.25 in 10.0 mi South 10.4 mph - N/A   Clear
6:55 AM 30.0 °F 18.7 °F 18.0 °F 61% 30.24 in 10.0 mi South 16.1 mph - N/A   Clear
7:55 AM 30.0 °F 19.5 °F 19.0 °F 64% 30.25 in 10.0 mi South 13.8 mph - N/A   Clear
8:55 AM 32.0 °F 21.6 °F 19.9 °F 61% 30.23 in 10.0 mi South 15.0 mph - N/A   Clear
9:55 AM 35.1 °F 25.2 °F 21.0 °F 57% 30.22 in 10.0 mi SSW 16.1 mph 23.0 mph N/A   Clear
10:55 AM 39.0 °F 29.6 °F 19.9 °F 46% 30.19 in 10.0 mi SSW 18.4 mph 27.6 mph N/A   Clear
11:55 AM 39.9 °F 31.1 °F 19.9 °F 45% 30.15 in 10.0 mi SSW 17.3 mph 26.5 mph N/A   Clear
12:55 PM 41.0 °F 33.1 °F 19.9 °F 43% 30.12 in 10.0 mi South 15.0 mph 25.3 mph N/A   Clear
1:55 PM 42.1 °F 35.7 °F 19.0 °F 40% 30.10 in 10.0 mi South 11.5 mph - N/A   Clear
2:55 PM 42.1 °F 34.9 °F 17.1 °F 37% 30.09 in 10.0 mi South 13.8 mph - N/A   Partly Cloudy
3:55 PM 39.9 °F 32.9 °F 17.1 °F 40% 30.08 in 10.0 mi SSE 11.5 mph - N/A   Partly Cloudy
4:55 PM 39.0 °F 32.3 °F 17.1 °F 41% 30.05 in 10.0 mi SE 10.4 mph - N/A   Partly Cloudy
5:55 PM 37.9 °F 30.9 °F 16.0 °F 41% 30.00 in 10.0 mi SSE 10.4 mph - N/A   Mostly Cloudy
6:55 PM 39.0 °F 32.8 °F 15.1 °F 38% 29.97 in 10.0 mi SSE 9.2 mph - N/A   Overcast
7:55 PM 37.0 °F 29.8 °F 19.9 °F 50% 29.93 in 10.0 mi SE 10.4 mph - 0.00 in Rain Light Rain
8:55 PM 34.0 °F 25.5 °F 25.0 °F 70% 29.89 in 7.0 mi SE 11.5 mph - 0.03 in Rain Light Rain
9:52 PM 33.8 °F 25.3 °F 28.4 °F 81% 29.78 in 3.0 mi ESE 11.5 mph - 0.09 in Rain Light Freezing Rain
9:55 PM 33.1 °F 24.4 °F 28.0 °F 82% 29.83 in 3.0 mi ESE 11.5 mph - 0.10 in Rain Light Freezing Rain
10:06 PM 33.8 °F 24.3 °F 28.4 °F 81% 29.77 in 4.0 mi ESE 13.8 mph - 0.03 in Rain Light Freezing Rain
10:13 PM 33.8 °F 24.8 °F 28.4 °F 81% 29.77 in 5.0 mi SE 12.7 mph - N/A Rain Light Freezing Rain
10:48 PM 33.8 °F 24.3 °F 30.2 °F 87% 29.75 in 3.0 mi SE 13.8 mph - 0.09 in Rain Light Freezing Rain
10:55 PM 33.1 °F 23.9 °F 30.0 °F 89% 29.79 in 3.0 mi SE 12.7 mph - 0.10 in Rain Light Freezing Rain
11:21 PM 33.8 °F 24.8 °F 30.2 °F 87% 29.73 in 3.0 mi SE 12.7 mph - 0.02 in Rain Light Freezing Rain
11:46 PM 33.8 °F 25.3 °F 30.2 °F 87% 29.71 in 2.5 mi ESE 11.5 mph - 0.05 in Rain Light Freezing Rain
11:55 PM 33.1 °F 24.9 °F 30.9 °F 92% 29.75 in 3.0 mi ESE 10.4 mph - 0.05 in Rain Light Freezing Rain